VTJ859 KLCK-KBDL

Flight info

Callsign VTJ859
Flight time N/A
Altitude 45000
Route DCT RDBUV DCT NOWZU DCT JUSEP DCT DJB DCT JHW Q82 MEMMS DCT WILET STELA1
Aircraft C750/M-SDE3FGHIRWY/LB1

Departure

Time 2026-05-05 07:15
Airport Rickenbacker International Airport (KLCK)

Arrival

Time N/A
Airport Bradley International Airport (KBDL)
Time Latitude Longitude Altitude Speed Heading
2026-05-05 06:33 39.82196 -82.92573 740 ft 0 kts 314°
2026-05-05 07:02 39.82193 -82.92569 740 ft 3 kts 315°
2026-05-05 07:02 39.82174 -82.92544 740 ft 4 kts 315°
2026-05-05 07:02 39.82154 -82.92521 739 ft 4 kts 325°
2026-05-05 07:02 39.82131 -82.92506 740 ft 4 kts 356°
2026-05-05 07:03 39.82113 -82.92511 739 ft 1 kts 43°
2026-05-05 07:03 39.82110 -82.92514 739 ft 0 kts 43°
2026-05-05 07:10 39.82113 -82.92511 740 ft 2 kts 43°
2026-05-05 07:10 39.82131 -82.92489 739 ft 4 kts 43°
2026-05-05 07:11 39.82154 -82.92462 740 ft 5 kts 43°
2026-05-05 07:11 39.82177 -82.92430 740 ft 8 kts 46°
2026-05-05 07:11 39.82232 -82.92357 739 ft 12 kts 46°
2026-05-05 07:11 39.82289 -82.92281 740 ft 11 kts 45°
2026-05-05 07:12 39.82344 -82.92210 739 ft 11 kts 45°
2026-05-05 07:12 39.82396 -82.92142 740 ft 10 kts 45°
2026-05-05 07:12 39.82445 -82.92078 738 ft 10 kts 45°
2026-05-05 07:12 39.82542 -82.91951 738 ft 22 kts 43°
2026-05-05 07:13 39.82650 -82.91812 739 ft 21 kts 45°
2026-05-05 07:13 39.82749 -82.91682 738 ft 16 kts 44°
2026-05-05 07:13 39.82783 -82.91626 737 ft 5 kts 67°
2026-05-05 07:13 39.82774 -82.91591 739 ft 4 kts 140°
2026-05-05 07:14 39.82750 -82.91561 739 ft 6 kts 135°
2026-05-05 07:14 39.82721 -82.91524 739 ft 7 kts 135°
2026-05-05 07:14 39.82677 -82.91468 739 ft 11 kts 135°
2026-05-05 07:14 39.82610 -82.91426 737 ft 11 kts 200°
2026-05-05 07:15 39.82551 -82.91501 738 ft 20 kts 226°
2026-05-05 07:15 39.82199 -82.91968 740 ft 125 kts 225°
2026-05-05 07:15 39.81504 -82.92891 1184 ft 145 kts 225°
2026-05-05 07:15 39.80841 -82.93836 2210 ft 137 kts 227°
2026-05-05 07:16 39.80180 -82.94772 3048 ft 142 kts 226°
2026-05-05 07:16 39.79486 -82.95731 3934 ft 148 kts 227°
2026-05-05 07:16 39.78758 -82.96723 4809 ft 157 kts 229°
2026-05-05 07:16 39.78021 -82.97790 5576 ft 166 kts 245°
2026-05-05 07:17 39.78096 -82.99306 6332 ft 188 kts 293°
2026-05-05 07:17 39.79246 -83.00309 7179 ft 223 kts 338°
2026-05-05 07:17 39.80865 -83.00177 8220 ft 239 kts
2026-05-05 07:17 39.82491 -82.99713 9387 ft 242 kts
2026-05-05 07:18 39.84155 -82.99016 10066 ft 265 kts 11°
2026-05-05 07:18 39.86010 -82.98077 10161 ft 306 kts 14°
2026-05-05 07:18 39.88076 -82.97034 10503 ft 331 kts 13°
2026-05-05 07:18 39.90324 -82.95972 10749 ft 357 kts 13°
2026-05-05 07:19 39.92737 -82.94845 11123 ft 374 kts 14°
2026-05-05 07:19 39.95169 -82.93664 12071 ft 373 kts 14°
2026-05-05 07:19 39.97610 -82.92481 12915 ft 375 kts 14°
2026-05-05 07:19 40.00072 -82.91314 13711 ft 378 kts 14°
2026-05-05 07:20 40.02550 -82.90137 14442 ft 380 kts 14°
2026-05-05 07:20 40.05046 -82.88938 15141 ft 384 kts 15°
2026-05-05 07:20 40.07565 -82.87725 15829 ft 388 kts 15°
2026-05-05 07:20 40.10109 -82.86505 16516 ft 391 kts 15°
2026-05-05 07:21 40.12675 -82.85275 17265 ft 394 kts 15°
2026-05-05 07:21 40.15258 -82.84034 18008 ft 398 kts 15°
2026-05-05 07:21 40.17868 -82.82778 18678 ft 401 kts 15°
2026-05-05 07:21 40.20499 -82.81511 19372 ft 405 kts 16°
2026-05-05 07:22 40.23124 -82.80247 20083 ft 408 kts 16°
2026-05-05 07:22 40.25801 -82.78956 20803 ft 413 kts 16°
2026-05-05 07:22 40.28513 -82.77648 21457 ft 417 kts 16°
2026-05-05 07:22 40.31248 -82.76328 22176 ft 421 kts 17°
2026-05-05 07:23 40.34004 -82.74994 22840 ft 425 kts 17°
2026-05-05 07:23 40.36791 -82.73644 23474 ft 429 kts 17°
2026-05-05 07:23 40.39600 -82.72284 24049 ft 432 kts 17°
2026-05-05 07:23 40.42409 -82.70822 24587 ft 436 kts 19°
2026-05-05 07:24 40.45226 -82.69316 25160 ft 438 kts 19°
2026-05-05 07:24 40.48063 -82.67819 25727 ft 441 kts 19°
2026-05-05 07:24 40.50923 -82.66306 26291 ft 444 kts 19°
2026-05-05 07:24 40.53796 -82.64769 26850 ft 448 kts 19°
2026-05-05 07:25 40.56677 -82.63160 27370 ft 452 kts 21°
2026-05-05 07:25 40.59553 -82.61447 27955 ft 455 kts 21°
2026-05-05 07:25 40.62448 -82.59733 28550 ft 458 kts 21°
2026-05-05 07:25 40.65369 -82.58010 29133 ft 462 kts 20°
2026-05-05 07:26 40.68311 -82.56267 29707 ft 465 kts 21°
2026-05-05 07:26 40.71272 -82.54506 30206 ft 469 kts 21°
2026-05-05 07:26 40.74259 -82.52728 30672 ft 472 kts 21°
2026-05-05 07:26 40.77250 -82.50949 31316 ft 471 kts 21°
2026-05-05 07:27 40.80230 -82.49175 32019 ft 469 kts 21°
2026-05-05 07:27 40.83199 -82.47404 32678 ft 468 kts 21°
2026-05-05 07:27 40.86164 -82.45635 33346 ft 467 kts 20°
2026-05-05 07:27 40.89126 -82.43884 34005 ft 466 kts 20°
2026-05-05 07:28 40.92089 -82.42155 34515 ft 466 kts 20°
2026-05-05 07:28 40.95016 -82.40436 35099 ft 466 kts 20°
2026-05-05 07:28 40.97968 -82.38685 35690 ft 464 kts 20°
2026-05-05 07:28 41.00914 -82.36938 36248 ft 464 kts 19°
2026-05-05 07:29 41.03859 -82.35201 36800 ft 463 kts 19°
2026-05-05 07:29 41.06801 -82.33464 37356 ft 463 kts 19°
2026-05-05 07:29 41.09777 -82.31698 37940 ft 462 kts 19°
2026-05-05 07:29 41.12674 -82.29978 38443 ft 462 kts 19°
2026-05-05 07:30 41.15606 -82.28238 38848 ft 463 kts 19°
2026-05-05 07:30 41.21495 -82.24739 39626 ft 464 kts 19°
2026-05-05 07:30 41.24446 -82.22980 40032 ft 465 kts 19°
2026-05-05 07:31 41.27403 -82.21217 40425 ft 466 kts 19°
2026-05-05 07:31 41.30329 -82.19329 40821 ft 472 kts 24°
2026-05-05 07:31 41.33061 -82.16851 41199 ft 480 kts 34°
2026-05-05 07:31 41.34711 -82.14875 41439 ft 484 kts 41°
2026-05-05 07:32 41.36905 -82.11450 41875 ft 490 kts 50°
2026-05-05 07:32 41.38692 -82.07565 42304 ft 494 kts 60°
2026-05-05 07:32 41.40031 -82.03338 42735 ft 498 kts 68°
2026-05-05 07:32 41.41070 -81.98937 43157 ft 499 kts 72°
2026-05-05 07:33 41.42032 -81.94496 43579 ft 499 kts 71°
2026-05-05 07:33 41.43160 -81.90126 43971 ft 499 kts 66°
2026-05-05 07:33 41.44504 -81.85871 44395 ft 498 kts 64°
2026-05-05 07:33 41.45862 -81.81618 44717 ft 500 kts 66°
2026-05-05 07:34 41.48260 -81.72716 44726 ft 518 kts 68°
2026-05-05 07:34 41.50926 -81.63630 44714 ft 534 kts 66°
2026-05-05 07:35 41.53553 -81.54226 44741 ft 547 kts 68°
2026-05-05 07:35 41.56272 -81.44651 44735 ft 556 kts 67°
2026-05-05 07:36 41.59008 -81.34930 44709 ft 562 kts 68°
2026-05-05 07:36 41.61750 -81.25122 44721 ft 563 kts 67°
2026-05-05 07:37 41.64500 -81.15314 44722 ft 563 kts 68°
2026-05-05 07:37 41.67218 -81.05505 44722 ft 562 kts 68°
2026-05-05 07:38 41.69946 -80.95695 44730 ft 563 kts 68°
2026-05-05 07:38 41.72649 -80.85877 44731 ft 562 kts 68°
2026-05-05 07:39 41.75354 -80.76057 44733 ft 562 kts 68°
2026-05-05 07:39 41.78025 -80.66292 44738 ft 562 kts 68°
2026-05-05 07:40 41.80711 -80.56453 44738 ft 562 kts 68°
2026-05-05 07:40 41.83390 -80.46588 44738 ft 564 kts 69°
2026-05-05 07:41 41.86065 -80.36703 44744 ft 564 kts 69°
2026-05-05 07:41 41.88731 -80.26810 44722 ft 564 kts 69°
2026-05-05 07:42 41.91389 -80.16912 44721 ft 564 kts 69°
2026-05-05 07:42 41.94043 -80.06985 44719 ft 565 kts 69°
2026-05-05 07:43 41.96686 -79.97056 44719 ft 565 kts 69°
2026-05-05 07:43 41.99323 -79.87113 44732 ft 564 kts 69°
2026-05-05 07:44 42.01951 -79.77164 44730 ft 564 kts 69°
2026-05-05 07:44 42.04124 -79.68906 44745 ft 564 kts 69°